This demonstration page uses our WeatherBlox Daily Observations layout. Learn more.

Left ArrowRight Arrow

38.89511, -77.03637

Hourly Observations for May 10, 2017

Temp ( °F °C ) Dew Point ( °F °C ) Humidity (%) Winds ( mph kmh ) Pressure ( in mb ) Visibility ( mi km ) Precip ( " mm )
12:52 am 00:52 Mostly Cloudy 55 12.8 40 4.4 57 57 Calm 29.98 1015 10 16 0.00 0.00
1:52 am 01:52 Mostly Cloudy 52 11.1 39 3.9 61 61 SW 3 6 29.97 1015 10 16 0.00 0.00
2:52 am 02:52 Mostly Cloudy 53 11.7 39 3.9 59 59 Calm 29.97 1015 10 16 0.00 0.00
3:52 am 03:52 Partly Cloudy 51 10.6 41 5 69 69 Calm 29.97 1015 10 16 0.00 0.00
4:52 am 04:52 Mostly Cloudy 50 10 42 5.6 74 74 N 3 6 29.98 1015 10 16 0.00 0.00
5:52 am 05:52 Mostly Cloudy 51 10.6 41 5 69 69 Calm 29.98 1015 10 16 0.00 0.00
6:52 am 06:52 Mostly Cloudy 51 10.6 46 7.8 83 83 Calm 30.02 1017 10 16 0.00 0.00
7:52 am 07:52 Cloudy 54 12.2 46 7.8 75 75 SE 3 6 30.01 1016 10 16 0.00 0.00
8:52 am 08:52 Cloudy 57 13.9 48 8.9 72 72 E 5 7 30.02 1017 10 16 0.00 0.00
9:52 am 09:52 Mostly Cloudy 61 16.1 46 7.8 58 58 NNE 6 9 30.02 1017 10 16 0.00 0.00
10:52 am 10:52 Cloudy 63 17.2 47 8.3 56 56 ENE 3 6 30.02 1017 10 16 0.00 0.00
11:52 am 11:52 Cloudy 67 19.4 47 8.3 49 49 E 5 7 30.00 1016 10 16 0.00 0.00
12:52 pm 12:52 Mostly Cloudy 70 21.1 43 6.1 38 38 E 5 7 29.98 1015 10 16 0.00 0.00
1:52 pm 13:52 Mostly Cloudy 75 23.9 40 4.4 28 28 NNE 9 15 29.97 1015 10 16 0.00 0.00
2:52 pm 14:52 Mostly Cloudy 75 23.9 38 3.3 26 26 NNE 10 17 29.96 1015 10 16 0.00 0.00
3:52 pm 15:52 Mostly Cloudy 75 23.9 38 3.3 26 26 NE 7 11 29.93 1014 10 16 0.00 0.00
4:52 pm 16:52 Mostly Cloudy 76 24.4 40 4.4 27 27 NNE 7 11 29.93 1014 10 16 0.00 0.00
5:52 pm 17:52 Mostly Cloudy 75 23.9 40 4.4 28 28 NNE 7 11 29.94 1014 10 16 0.00 0.00
6:52 pm 18:52 Mostly Cloudy 70 21.1 47 8.3 44 44 E 12 19 29.94 1014 10 16 0.00 0.00
7:52 pm 19:52 Mostly Cloudy 67 19.4 46 7.8 47 47 E 12 19 29.96 1015 10 16 0.00 0.00
8:52 pm 20:52 Mostly Cloudy 66 18.9 47 8.3 50 50 ENE 6 9 29.98 1015 10 16 0.00 0.00
9:52 pm 21:52 Mostly Cloudy 65 18.3 50 10 59 59 NE 7 11 30.00 1016 10 16 0.00 0.00
10:52 pm 22:52 Cloudy 65 18.3 47 8.3 52 52 ENE 6 9 30.00 1016 10 16 0.00 0.00
11:52 pm 23:52 Cloudy 64 17.8 47 8.3 54 54 E 5 7 29.99 1016 10 16 0.00 0.00

Powered by AerisWeather